Погода в Кировограде

Погода в Кировограде : погода сейчас, прогноз погоды и архив. Всё, что Вы хотите узнать о погоде в Кировограде!

Хотите узнать прогноз погоды в Кировограде? Тогда Вам сюда: Погода в Кировограде

Поиск расширенной информации на нашем сайте:

Другие новости

Новости СМИ2

Главная страница сайта

Новости сайта

03.07.2017

Напоминаем, что на нашем специализированном сайте Метеоцентр.Азия вы можете получить высокодетализированные автоматические прогнозы погоды по пунктам России, СНГ и мира в авиационном формате (включающие направление и скорость ветра, видимость, явления погоды, количество и форму облачности, нижнюю и верхнюю границу облачности).

Рекомендуем: Банкетный зал на 100 человек monaco банкетный зал на 120 человек.

Погода в Кировограде - сегодня

Время (UTC), дата Ветер
(°,м/с) 
Видим.   Явления Облачность Т
(°С)
Тd
(°С)
f(%) Тe
(°С)
Pmin
(гПа)
dP
(гПа)
Po
(мм)
O2
(г/м3)
Тmin Tmax R s Состояние
почвы
18 19.08.17 080 (В) 4000 м    3/0 средняя 
[Ac trans]
+25.8 +7.9 32 +26  1018.3  0.7  749  274    +35.8       
21 19.08.17 090 (В) 4000 м    ясно 
+25.2 +8.6 35 +25  1018.6  0.2  749  275           
00 20.08.17 100 (В) 4000 м    ясно 
+22.4 +8.2 40 +22  1018.5  -0.3  749  278           
03 20.08.17 090 (В) 20000 м    ясно 
+21 +10.4 51 +23  1018.5  749  278           
06 20.08.17 110 (В) 20000 м    ясно 
+24.9 +9.1 37 +25  1018.5  0.2  749  275  +20.5         
09 20.08.17 080 (В) 20000 м    ясно 
+31.4 +7.6 23 +31  1017.2  -0.9  748  269           
12 20.08.17 100 (В) 20000 м    5/5 1500 м 
[Cu hum]
+32.4 +5.1 18 +32  1015.7  -1.4  747  268           
15 20.08.17 110 (В) 20000 м    4/4 1500 м 
[Cu hum]
+32 +5.7 19 +32  1014.5  -1.2  746  268           
18 20.08.17 070 (В) 4000 м    3/0 средняя 
[Ac trans]
+26.5 +6.3 28 +27  1014.9  0.1  747  273           
21 20.08.17 080 (В) 4000 м    ясно 
+25.3 +6 29 +25  1014.4  -0.6  746  274           
00 21.08.17 100 (В) 4000 м    ясно 
+21.7 +4.7 33 +22  1013.9  -0.7  746  278           
03 21.08.17 130 (ЮВ) 20000 м    ясно 
+17.5 +7.9 53 +19  1014  -0.2  745  281           
06 21.08.17 120 (ЮВ) 20000 м    ясно 
+25.3 +9.3 36 +26  1012.6  -0.8  745  273  +17.5  +3       
09 21.08.17 100 (В) 20000 м    8/0 верхняя 
[Ci fib]
+31.2 +7.3 22 +31  1010.9  -1.3  744  268           
12 21.08.17 110 (В) 20000 м    8/4 1500 м верхняя 
[Cu hum|Ci fib]
+32.8 +5.4 18 +33  1008.9  -1.9  742  266           
15 21.08.17 130 (ЮВ) 20000 м    9/3 1500 м верхняя 
[Cu hum|Ci fib]
+32 +8.2 23 +32  1007.2  -1.7  741  266           
18 21.08.17 240 (ЮЗ) 4000 м  гроза без осадков  9/6 1000 м кучево-дожд., средняя 
[Cb cap|Ac trans]
+26.5 +12 40 +31  1009.2  1.6  742  270           
21 21.08.17 360 (С) 4000 м  {гроза}  10/4 1000 м кучево-дожд., средняя 
[Cb calv|Ac As]
+19.7 +15.3 76 +30  1008.6  -1  742  275           
00 22.08.17 360 (С) 4000 м  {гроза}  6/0 средняя 
[Ac trans]
+17.6 +14.9 84 +27  1007.6  -1.1  741  277           
03 22.08.17 350 (С) 20000 м    9/0 средняя 
[Ac trans]
+17 +15.6 91 +27  1006.9  -0.7  740  277           
06 22.08.17 340 (С) 10 км  слаб. ливневой дождь  9/5 1000 м кучево-дожд., средняя 
[Cb calv|Ac trans]
+18 +16.5 91 +30  1007.2  0.3  740  276  +16.4    0.1     
09 22.08.17 350 (С) 20000 м  {ливн. осадки}  9/6 420 м кучево-дожд., средняя 
[Cb calv|Ac trans]
+18.4 +16.1 86 +29  1006.5  -0.6  740  276           
12 22.08.17 350 (С) 10 км  слаб. ливневой дождь  10/10 500 м кучево-дожд. 
[Cb calv]
+18.6 +15 80 +28  1006.2  -0.3  740  276           
15 22.08.17 320 (СЗ) 10 км  слаб. ливневой дождь  10/10 180 м кучево-дожд. 
[Cb calv]
+17 +16.2 95 +28  1006  -0.3  740  277           
18 22.08.17 320 (СЗ) 4000 м  {ливн. осадки}  10/10 270 м кучево-дожд. 
[Cb calv]
+15.2 +14 93 +22  1007  0.8  740  280    +19.5     
Время (UTC), дата Ветер
(°,м/с) 
Видим.   Явления Облачность Т
(°С)
Тd
(°С)
f(%) Тe
(°С)
Pmin
(гПа)
dP
(гПа)
Po
(мм)
O2
(г/м3)
Тmin Tmax R s Состояние
почвы

Для получения пояснительной информации подведите курсор к названию столбца.

ПОГОДА в Кировограде - архив

Всё, что Вы хотите узнать о погоде в Кировограде - удобно и подробно!

Выберите нужную дату (начиная с 1 января 2015* года) и нажмите кнопку "Найти".
Будут отображены архивные сводки погоды по пункту Кировоград, начиная с указанной даты.


Отображать данные в формате CSV (для использования в таблицах Excel)


Внимание! Наш архив погоды предназначен исключительно для личного некоммерческого использования в познавательных целях. Если Вам необходимы официальные справки о состоянии погоды (для производственных, юридических, коммерческих и т.п. целей), обращайтесь в органы Росгидромета.

*Примечание: данная дата относится к архиву по метеостанциям СССР (Россия, СНГ, Балтия).
Архив по метеостанциям Зарубежной Европы и Азии (кроме Китая) хранится 10 дней, по другим регионам земного шара (Китай, Африка, Америка, Австралия, Океания) - 1 день.

Кировоград - район местоположения метеостанции


Название, широта, долгота, высота метеостанции:
Кировоград 48.5°ш. 32.2°д. 171 м над ур. моря [Украина]

Дополнительная информация

В oтличие oт бoльшинства пoгoдных сайтoв мы публикуем пoдрoбную метеoинфoрмацию в детальнoм прoфессиoнальнoм фoрмате.

Характеристики температуры и влажнoсти вoздуха измеряются на высoте 2 м в тени вдали oт зданий и деревьев.
Скoрoсть ветра измеряется на высoте 10 м (на урoвне рoста челoвека скoрoсть ветра ниже в 1.5-2 раза). Если метеoстанция нахoдится в гoрoде или в лесу, тo скoрoсть ветра занижена на 2-4 м/с пo сравнению с oткрытым местoм. Скoрoсть ветра над акватoриями крупных рек и oзёр, а также на вершинах хoлмoв на 2-5 м/с выше, чем в oбычных услoвиях.
Атмoсфернoе давление в разных тoчках местнoсти мoжет значительнo oтличаться oт давления на метеoстанции, в зависимoсти oт услoвий рельефа (при пoдъёме на 10 м давление пoнижается примернo на 1 мм рт.ст.).